Location: Unspecified
(56.5167°N, 0.0000°E)
Time: 16:42:11
(UTC+02:00)

Cosmos 1674 - Visible Passes

Search period start: 28 August 2015 00:00
Search period end: 07 September 2015 00:00
Orbit: 506 x 529 km, 82.5° (Epoch: 26 August)

Date Brightness Start Highest point End Pass type
(mag) Time Alt. Az. Time Alt. Az. Time Alt. Az.
28 Aug 2.8 01:28:37 10° NNW 01:32:19 76° N 01:32:19 76° N visible
28 Aug 5.1 03:05:46 10° NW 03:07:22 13° WNW 03:07:22 13° WNW visible
28 Aug 5.1 23:39:58 10° NNE 23:41:40 13° NE 23:42:57 11° ENE visible
29 Aug 2.9 01:14:20 10° N 01:18:00 70° NE 01:18:00 70° NE visible
29 Aug 5.0 02:51:12 10° NW 02:53:03 15° WNW 02:53:03 15° WNW visible
29 Aug 5.2 23:26:03 10° NE 23:27:15 11° NE 23:28:35 10° ENE visible
30 Aug 3.0 01:00:02 10° N 01:03:41 62° NE 01:03:41 62° NE visible
30 Aug 4.9 02:36:40 10° NW 02:38:44 17° WNW 02:38:44 17° WNW visible
30 Aug 5.3 23:12:37 10° NE 23:12:50 10° NE 23:13:11 10° NE visible
31 Aug 3.1 00:45:45 10° N 00:49:23 54° ENE 00:49:23 54° ENE visible
31 Aug 4.8 02:22:11 10° NW 02:24:26 19° WNW 02:24:26 19° WNW visible
01 Sep 3.3 00:31:28 10° N 00:35:06 48° ENE 00:35:06 48° ENE visible
01 Sep 4.7 02:07:44 10° NW 02:10:08 21° WNW 02:10:08 21° WNW visible
02 Sep 3.4 00:17:11 10° N 00:20:48 42° ENE 00:20:48 42° ENE visible
02 Sep 4.6 01:53:18 10° NNW 01:55:51 24° WNW 01:55:51 24° WNW visible
03 Sep 3.6 00:02:54 10° N 00:06:31 37° ENE 00:06:31 37° ENE visible
03 Sep 4.4 01:38:53 10° NNW 01:41:34 26° WNW 01:41:34 26° WNW visible
03 Sep 3.8 23:48:38 10° N 23:52:12 33° ENE 23:52:14 33° ENE visible
04 Sep 4.3 01:24:28 10° NNW 01:27:17 30° WNW 01:27:17 30° WNW visible
04 Sep 3.9 23:34:22 10° N 23:37:49 29° ENE 23:37:58 29° ENE visible
05 Sep 4.1 01:10:05 10° NNW 01:13:01 34° WNW 01:13:01 34° WNW visible
05 Sep 4.1 23:20:07 10° N 23:23:26 26° ENE 23:23:41 26° ENE visible
06 Sep 3.9 00:55:41 10° NNW 00:58:44 38° WNW 00:58:44 38° WNW visible
06 Sep 4.2 23:05:53 10° N 23:09:02 23° ENE 23:09:26 23° ENE visible
